Location: West Sayville
(40.7279°N, 73.0976°W)
Time: 04:40:32
(UTC+00:00)

USA 306 - Pass Details

Date: 29 October 2020
Orbit: 569 x 577 km, 54.0° (Epoch: 22 November)

Event Time Altitude Azimuth Distance (km) Brightness Sun altitude
Rises 22:44:17 0° 314° (NW) 2,785 7.0 -10.5°
Reaches altitude 10° 22:46:45 10° 325° (NW) 1,883 5.9 -11.0°
Maximum altitude 22:50:34 30° 28° (NNE) 1,032 3.9 -11.7°
Enters shadow 22:52:56 18° 78° (ENE) 1,423 4.3 -12.1°
